Time,TemperatureF,DewpointF,PressureIn,WindDirection,WindDirectionDegrees,WindSpeedMPH,WindSpeedGustMPH,Humidity,HourlyPrecipIn,Conditions,Clouds,dailyrainin,SoftwareType,DateUTC
2013-06-22 10:02:00,88.0,80.0,30.06,SSE,168,1.0,5.0,77,0.00,,,0.00,,2013-06-22 15:02:00,
2013-06-22 10:12:00,88.0,79.0,30.06,SSE,167,1.0,5.0,74,0.00,,,0.00,,2013-06-22 15:12:00,
2013-06-22 10:22:00,88.0,79.0,30.07,SSE,167,0.0,4.0,75,0.00,,,0.00,,2013-06-22 15:22:00,
2013-06-22 10:34:00,88.0,79.0,30.06,SSE,167,0.0,1.0,76,0.00,,,0.00,,2013-06-22 15:34:00,
2013-06-22 10:43:00,89.0,79.0,30.07,SSE,167,0.0,1.0,73,0.00,,,0.00,,2013-06-22 15:43:00,
2013-06-22 10:53:00,89.0,77.0,30.06,SSE,151,1.0,5.0,69,0.00,,,0.00,,2013-06-22 15:53:00,
2013-06-22 11:02:00,89.0,78.0,30.06,SSE,151,0.0,5.0,71,0.00,,,0.00,,2013-06-22 16:02:00,
2013-06-22 11:12:00,89.0,78.0,30.07,SSE,151,0.0,4.0,70,0.00,,,0.00,,2013-06-22 16:12:00,
2013-06-22 11:22:00,89.0,78.0,30.07,SSE,149,0.0,5.0,70,0.00,,,0.00,,2013-06-22 16:22:00,
2013-06-22 11:34:00,90.0,78.0,30.07,SSE,149,0.0,1.0,68,0.00,,,0.00,,2013-06-22 16:34:00,
2013-06-22 11:43:00,90.0,80.0,30.07,SSE,148,0.0,5.0,72,0.00,,,0.00,,2013-06-22 16:43:00,
2013-06-22 11:52:00,90.0,79.0,30.07,SE,136,0.0,6.0,71,0.00,,,0.00,,2013-06-22 16:52:00,
2013-06-22 12:11:00,91.0,80.0,30.07,SE,136,1.0,5.0,70,0.00,,,0.00,,2013-06-22 17:11:00,
2013-06-22 12:34:00,90.0,80.0,30.06,SE,134,3.0,6.0,72,0.00,,,0.00,,2013-06-22 17:34:00,
2013-06-22 12:43:00,91.0,80.0,30.07,SE,134,0.0,5.0,70,0.00,,,0.00,,2013-06-22 17:43:00,
2013-06-22 12:52:00,91.0,80.0,30.07,SE,134,2.0,5.0,71,0.00,,,0.00,,2013-06-22 17:52:00,
2013-06-22 13:12:00,91.0,79.0,30.06,SE,132,0.0,5.0,69,0.00,,,0.00,,2013-06-22 18:12:00,
2013-06-22 13:23:00,91.0,80.0,30.06,SE,132,1.0,5.0,70,0.00,,,0.00,,2013-06-22 18:23:00,
2013-06-22 13:43:00,91.0,81.0,30.05,SE,132,2.0,5.0,72,0.00,,,0.00,,2013-06-22 18:43:00,
2013-06-22 13:52:00,91.0,80.0,30.05,SE,124,4.0,8.0,70,0.00,,,0.00,,2013-06-22 18:52:00,
2013-06-22 14:01:00,91.0,78.0,30.05,SE,128,3.0,6.0,66,0.00,,,0.00,,2013-06-22 19:01:00,
2013-06-22 14:11:00,92.0,80.0,30.05,SE,128,0.0,8.0,69,0.00,,,0.00,,2013-06-22 19:11:00,
2013-06-22 14:22:00,92.0,79.0,30.04,SE,126,1.0,6.0,67,0.00,,,0.00,,2013-06-22 19:22:00,
2013-06-22 14:33:00,92.0,79.0,30.04,ESE,113,0.0,7.0,67,0.00,,,0.00,,2013-06-22 19:33:00,
2013-06-22 14:43:00,92.0,80.0,30.03,ESE,113,0.0,5.0,69,0.00,,,0.00,,2013-06-22 19:43:00,
2013-06-22 14:52:00,91.0,80.0,30.03,ESE,113,0.0,4.0,70,0.00,,,0.00,,2013-06-22 19:52:00,
2013-06-22 15:02:00,92.0,79.0,30.03,ESE,116,2.0,5.0,67,0.00,,,0.00,,2013-06-22 20:02:00,
2013-06-22 15:11:00,92.0,80.0,30.03,ESE,120,3.0,8.0,69,0.00,,,0.00,,2013-06-22 20:11:00,
2013-06-22 15:22:00,92.0,81.0,30.03,ESE,122,0.0,4.0,70,0.00,,,0.00,,2013-06-22 20:22:00,
2013-06-22 15:33:00,93.0,79.0,30.02,SE,146,1.0,7.0,65,0.00,,,0.00,,2013-06-22 20:33:00,
2013-06-22 15:43:00,92.0,77.0,30.01,ESE,116,2.0,9.0,61,0.00,,,0.00,,2013-06-22 20:43:00,
2013-06-22 15:53:00,93.0,78.0,30.01,ESE,107,4.0,9.0,62,0.00,,,0.00,,2013-06-22 20:53:00,
2013-06-22 16:01:00,93.0,79.0,30.01,ESE,109,1.0,5.0,64,0.00,,,0.00,,2013-06-22 21:01:00,
2013-06-22 16:11:00,93.0,77.0,30.00,SE,126,2.0,7.0,60,0.00,,,0.00,,2013-06-22 21:11:00,
2013-06-22 16:22:00,93.0,79.0,30.00,South,187,4.0,9.0,63,0.00,,,0.00,,2013-06-22 21:22:00,
2013-06-22 16:53:00,91.0,79.0,30.00,SSW,207,5.0,9.0,68,0.00,,,0.00,,2013-06-22 21:53:00,
2013-06-22 17:02:00,90.0,79.0,30.00,WSW,239,3.0,9.0,71,0.00,,,0.00,,2013-06-22 22:02:00,
2013-06-22 17:12:00,88.0,78.0,30.00,WSW,241,0.0,7.0,73,0.00,,,0.00,,2013-06-22 22:12:00,
2013-06-22 17:23:00,88.0,79.0,29.99,WSW,241,0.0,4.0,74,0.00,,,0.00,,2013-06-22 22:23:00,
2013-06-22 17:33:00,87.0,79.0,29.99,WSW,241,0.0,2.0,78,0.00,,,0.00,,2013-06-22 22:33:00,
2013-06-22 17:43:00,87.0,80.0,29.99,WSW,241,0.0,0.0,79,0.00,,,0.00,,2013-06-22 22:43:00,
2013-06-22 17:52:00,86.0,79.0,29.98,WSW,241,0.0,0.0,81,0.00,,,0.00,,2013-06-22 22:52:00,
2013-06-22 19:33:00,89.0,80.0,29.96,NW,309,0.0,1.0,74,0.00,,,0.00,,2013-06-23 00:33:00,
2013-06-22 20:11:00,88.0,80.0,29.96,NW,309,0.0,0.0,77,0.00,,,0.00,,2013-06-23 01:11:00,
2013-06-22 20:22:00,88.0,80.0,29.96,NW,309,0.0,0.0,77,0.00,,,0.00,,2013-06-23 01:22:00,
2013-06-22 20:32:00,87.0,81.0,29.96,NW,309,0.0,0.0,82,0.00,,,0.00,,2013-06-23 01:32:00,
2013-06-22 20:42:00,87.0,81.0,29.96,NW,309,0.0,0.0,82,0.00,,,0.00,,2013-06-23 01:42:00,
2013-06-22 20:52:00,85.0,80.0,29.96,NNW,342,0.0,0.0,84,0.00,,,0.00,,2013-06-23 01:52:00,
2013-06-22 21:01:00,85.0,80.0,29.96,NNW,342,0.0,0.0,84,0.00,,,0.00,,2013-06-23 02:01:00,
2013-06-22 21:11:00,85.0,80.0,29.96,NNW,342,0.0,0.0,84,0.00,,,0.00,,2013-06-23 02:11:00,
2013-06-22 21:21:00,85.0,80.0,29.96,NNW,342,0.0,0.0,84,0.00,,,0.00,,2013-06-23 02:21:00,
2013-06-22 21:31:00,85.0,80.0,29.96,NNW,342,0.0,0.0,84,0.00,,,0.00,,2013-06-23 02:31:00,
2013-06-22 22:01:00,84.0,79.0,29.96,NNW,342,0.0,0.0,84,0.00,,,0.00,,2013-06-23 03:01:00,
2013-06-22 22:11:00,84.0,79.0,29.96,NNW,342,0.0,0.0,84,0.00,,,0.00,,2013-06-23 03:11:00,
2013-06-22 22:21:00,84.0,79.0,29.96,NNW,342,0.0,0.0,84,0.00,,,0.00,,2013-06-23 03:21:00,
2013-06-22 22:31:00,84.0,79.0,29.96,NNW,342,0.0,0.0,85,0.00,,,0.00,,2013-06-23 03:31:00,
2013-06-22 22:41:00,84.0,79.0,29.96,NNW,342,0.0,0.0,85,0.00,,,0.00,,2013-06-23 03:41:00,
2013-06-22 22:52:00,79.0,74.0,29.99,NNW,342,0.0,0.0,86,0.00,,,0.00,,2013-06-23 03:52:00,
2013-06-22 23:01:00,79.0,74.0,29.99,NNW,342,0.0,0.0,86,0.00,,,0.00,,2013-06-23 04:01:00,
2013-06-22 23:11:00,79.0,74.0,29.99,NNW,342,0.0,0.0,86,0.00,,,0.00,,2013-06-23 04:11:00,
2013-06-22 23:21:00,79.0,74.0,29.99,NNW,342,0.0,0.0,86,0.00,,,0.00,,2013-06-23 04:21:00,
2013-06-22 23:31:00,79.0,74.0,29.99,NNW,342,0.0,0.0,86,0.00,,,0.00,,2013-06-23 04:31:00,
2013-06-22 23:42:00,79.0,74.0,29.99,NNW,342,0.0,0.0,86,0.00,,,0.00,,2013-06-23 04:42:00,
2013-06-22 23:52:00,79.0,74.0,29.99,NNW,342,0.0,0.0,86,0.00,,,0.00,,2013-06-23 04:52:00,